{"data":{"norad_id":64454,"intl_designator":"2025-130S","name":"STARLINK-34282","alt_names":[],"object_type":"PAYLOAD","status":"ACTIVE","operator":null,"country":"US","launch_date":"2025-06-18","launch_site_code":"AFETR","launch_vehicle":null,"mission":null,"orbit_class":"UNKNOWN","rcs_meters":null,"size_class":null,"mass_kg":null,"dimensions":null,"purposes":["comms"],"wikipedia_slug":null,"has_3d_model":false,"image_url":null,"decayed_at":null,"tle_current":{"epoch":"2026-05-25T02:52:08.255136Z","epoch_age_seconds":61946,"freshness":"FRESH","line1":"1 64454U 25130S   26145.11953999  .00027688  00000+0  90076-3 0  9993","line2":"2 64454  53.1591  95.7392 0000821 116.6851 243.4235 15.31697888 52379","mean_motion":15.31697888,"eccentricity":8.21e-5,"inclination_deg":53.1591,"raan_deg":95.7392,"arg_perigee_deg":116.6851,"mean_anomaly_deg":243.4235,"bstar":0.00090076,"rev_number":5237,"period_min":94.013317592301,"perigee_km":470.18399767679,"apogee_km":471.30858431317,"semimajor_km":6848.883290995,"source":"CELESTRAK","updated_at":"2026-05-25T13:38:20.451561Z"}}}